Regional Weather Roundup
Issued by NWS Cleveland, OH

Home | Current Version | Previous Version | Graphics & Text | Print | Product List | Glossary On
Versions: 1 2 3 4 5 6 7 8 9 10 11 12 13 14 15 16 17 18 19 20 21 22 23 24 25 26 27 28 29 30 31 32 33 34 35 36 37 38 39 40 41 42 43 44 45 46 47 48 49 50
000
ASUS41 KCLE 270810
RWRCLE
OHIO REGIONAL WEATHER ROUNDUP
NATIONAL WEATHER SERVICE WILMINGTON, OH
300 AM EST TUE JAN 27 2015

NOTE: "FAIR" INDICATES FEW OR NO CLOUDS BELOW 12,000 FEET WITH NO
SIGNIFICANT WEATHER AND/OR OBSTRUCTIONS TO VISIBILITY.

OHZ001>008-015>018-024>027-034-035-043-044-270900-
   NORTHWEST OHIO

CITY           SKY/WX    TMP DP  RH WIND       PRES   REMARKS
DEFIANCE       MOCLDY    14   9  80 CALM      29.97S
FINDLAY        PTCLDY     9   4  80 CALM      29.95S
TOLEDO EXPRESS MOCLDY    12   8  84 CALM      29.98R
TOLEDO EXEC    PTCLDY     9   4  80 CALM      29.99R
LIMA           PTCLDY    11   5  77 CALM      29.93R
$$

OHZ009>014-019>023-028>033-038-089-270900-
   NORTHEAST OHIO

CITY           SKY/WX    TMP DP  RH WIND       PRES   REMARKS
CLE-HOPKINS    FLURRIES  20  15  81 N9        29.96R WCI   9
CLE-LAKEFRONT  FLURRIES  21  16  81 N14       29.94R WCI   8
CUY CO. ARPT   NOT AVBL
LORAIN-ELYRIA  LGT SNOW  18  15  88 N8        29.94R FOG     WCI   8
ASHTABULA      LGT SNOW  19  15  84 N7        29.90R FOG     WCI  10
AKRON-CANTON   LGT SNOW  18  13  80 NW7       29.88R WCI   9
WOOSTER        CLOUDY    15  11  83 NW7       29.90R WCI   5
MANSFIELD      CLOUDY    10   8  92 NW6       29.89S WCI   0
YOUNGSTOWN     LGT SNOW  19  15  84 NW12      29.86R FOG     WCI   7
$$

OHZ042-051>053-060>062-070>072-077>081-270900-
  SOUTHWEST OHIO

CITY           SKY/WX    TMP DP  RH WIND       PRES   REMARKS
CINC-COVINGTON CLOUDY    24  15  68 NE6       29.91R WCI  17
CINC-LUNKEN    CLOUDY    21  15  78 NE6       29.96R WCI  13
HAMILTON       FLURRIES  21  14  74 E5        29.95S WCI  15
DAYTON         CLOUDY    16  12  84 NE3       29.93R
WRIGHT-PAT AFB CLOUDY    14  10  84 NE5       29.94R WCI   6
DAYTON GENERAL CLOUDY    17  12  80 E5        29.92R WCI  10
WILMINGTON     CLOUDY    14   9  80 NE6       29.91R WCI   5
$$

OHZ036-037-039>041-045>050-054>059-063>069-073>076-082>088-270900-
  CENTRAL AND SOUTHEAST OHIO

CITY           SKY/WX    TMP DP  RH WIND       PRES   REMARKS
COLUMBUS       PTCLDY     9   7  92 N3        29.93F
OSU AIRPORT    PTCLDY     8   5  87 CALM      29.93S FOG
BOLTON FIELD   CLOUDY     9   7  89 NW3       29.94S
RICKENBACK AFB CLEAR     11   8  88 N3        29.94S
NEWARK         PTCLDY    11   7  84 CALM      29.91S
MARION         FOG       -4  -8  83 CALM      29.93S VSB 1/4
LANCASTER      PTCLDY     9   6  88 N3        29.93R FOG
ZANESVILLE     CLOUDY    18  12  77 NW3       29.90F
NEW PHILLY     CLOUDY    19  13  77 NW6       29.91R WCI  11
$$


USA.gov is the U.S. government's official web portal to all federal, state and local government web resources and services.